Weather History for Sarasota, FL

Change the Weather History Date:

Monday, January 15, 2001

  Actual Average Record
Temperature  
Mean Temperature 60 °F 61 °F  
Max Temperature 73 °F 71 °F 83 °F (1947)
Min Temperature 48 °F 52 °F 27 °F (1964)
Degree Days  
Heating Degree Days 4 5  
Month to date heating degree days 84  
Since 1 July heating degree days 239  
Cooling Degree Days 0 2  
Month to date cooling degree days 30  
Year to date cooling degree days 30  
Growing Degree Days 10 (Base 50)    
Moisture  
Dew Point 54 °F    
Average Humidity 94    
Maximum Humidity 100    
Minimum Humidity 64    
Precipitation  
Precipitation 0.00 in 0.05 in 2.30 in (1965)
Month to date precipitation 1.57  
Year to date precipitation 1.57  
Sea Level Pressure  
Sea Level Pressure 30.13 in    
Wind  
Wind Speed 2 mph (NNE)    
Max Wind Speed 12 mph    
Max Gust Speed -    
Visibility 4 miles    
Events Fog    
T = Trace of Precipitation, MM = Missing Value Source: NWS Daily Summary

Daily Weather History Graph

Daily Weather History Graph

Search for Another Location

Airport:

Trip Planner

Search our weather history database for the weather conditions in past years. The results will help you decide how hot, cold, wet, or windy it might be!

Date:

Astronomy

Jan. 15, 2001 Rise Set
Actual Time 7:21 AM EST 5:58 PM EST
Civil Twilight 6:56 AM EST 6:23 PM EST
Nautical Twilight 6:27 AM EST 6:51 PM EST
Astronomical Twilight 5:59 AM EST 7:20 PM EST
Moon No Moon Rise 11:50 AM EST (1/15)
Length of Visible Light 11h 26m
Length of Day
10h 36m
Waning Gibbous, 59% of the Moon is Illuminated
Jan 15
Waning Gibbous
Jan 16
Last Quarter
Jan 24
New
Feb 1
First Quarter
Feb 8
Full

Hourly Weather History & Observations

Time (EST) Temp. Dew Point Humidity Pressure Visibility Wind Dir Wind Speed Gust Speed Precip Events Conditions
12:53 AM 52.0 °F 52.0 °F 100% 30.14 in 2.5 mi Calm Calm - N/A   Clear
1:12 AM 51.8 °F 51.8 °F 100% 30.13 in 3.0 mi North 3.5 mph - N/A   Clear
1:23 AM 51.8 °F 51.8 °F 100% 30.13 in 2.0 mi Calm Calm - N/A   Clear
1:53 AM 51.1 °F 51.1 °F 100% 30.13 in 1.8 mi Calm Calm - N/A   Clear
2:02 AM 51.8 °F 51.8 °F 100% 30.13 in 2.0 mi Calm Calm - N/A   Clear
2:08 AM 51.8 °F 51.8 °F 100% 30.13 in 0.8 mi Calm Calm - N/A   Clear
2:15 AM 51.8 °F 51.8 °F 100% 30.13 in 0.5 mi Calm Calm - N/A Fog Fog
2:19 AM 51.8 °F 51.8 °F 100% 30.13 in 1.0 mi Calm Calm - N/A   Clear
2:53 AM 50.0 °F 50.0 °F 100% 30.13 in 1.0 mi Calm Calm - N/A   Clear
3:11 AM 51.8 °F 51.8 °F 100% 30.13 in 2.5 mi North 3.5 mph - N/A   Clear
3:44 AM 50.0 °F 50.0 °F 100% 30.12 in 3.0 mi Calm Calm - N/A   Clear
3:53 AM 50.0 °F 50.0 °F 100% 30.12 in 2.5 mi Calm Calm - N/A   Clear
4:09 AM 48.2 °F 48.2 °F 100% 30.12 in 0.8 mi NNE 3.5 mph - N/A   Clear
4:22 AM 50.0 °F 50.0 °F 100% 30.12 in 2.0 mi NNE 3.5 mph - N/A   Clear
4:44 AM 50.0 °F 50.0 °F 100% 30.12 in 1.8 mi NNE 3.5 mph - N/A   Clear
4:53 AM 50.0 °F 50.0 °F 100% 30.12 in 3.0 mi NNE 3.5 mph - N/A   Clear
5:07 AM 48.2 °F 48.2 °F 100% 30.12 in 2.5 mi NE 3.5 mph - N/A   Clear
5:41 AM 48.2 °F 48.2 °F 100% 30.12 in 1.2 mi Calm Calm - N/A   Clear
5:53 AM 48.9 °F 48.9 °F 100% 30.12 in 2.0 mi Calm Calm - N/A   Clear
6:08 AM 50.0 °F 50.0 °F 100% 30.13 in 3.0 mi North 3.5 mph - N/A   Clear
7:30 AM 51.8 °F 51.8 °F 100% 30.15 in 3.0 mi NE 3.5 mph - N/A   Scattered Clouds
7:39 AM 51.8 °F 51.8 °F 100% 30.15 in 3.0 mi NNE 3.5 mph - N/A   Mostly Cloudy
7:53 AM 51.1 °F 51.1 °F 100% 30.15 in 3.0 mi Calm Calm - N/A   Overcast
8:00 AM 51.8 °F 51.8 °F 100% 30.15 in 2.0 mi NE 3.5 mph - N/A   Overcast
8:18 AM 53.6 °F 53.6 °F 100% 30.16 in 0.5 mi NE 4.6 mph - N/A Fog Fog
8:53 AM 55.9 °F 55.9 °F 100% 30.17 in 0.5 mi NE 3.5 mph - N/A Fog Fog
8:58 AM 55.4 °F 55.4 °F 100% 30.17 in 0.2 mi ENE 5.8 mph - N/A Fog Fog
9:34 AM 57.2 °F 57.2 °F 100% 30.18 in 1.5 mi NE 3.5 mph - N/A   Overcast
9:42 AM 59.0 °F 59.0 °F 100% 30.18 in 3.0 mi ENE 4.6 mph - N/A   Mostly Cloudy
9:53 AM 60.1 °F 59.0 °F 96% 30.18 in 4.0 mi ENE 5.8 mph - N/A   Partly Cloudy
10:53 AM 66.9 °F 61.0 °F 81% 30.18 in 8.0 mi Variable 3.5 mph - N/A   Clear
11:53 AM 73.9 °F 61.0 °F 64% 30.15 in 10.0 mi East 5.8 mph - N/A   Clear
12:53 PM 73.9 °F 61.0 °F 64% 30.12 in 10.0 mi West 6.9 mph - N/A   Clear
1:53 PM 70.0 °F 61.0 °F 73% 30.09 in 5.0 mi West 10.4 mph - N/A   Haze
2:53 PM 70.0 °F 61.0 °F 73% 30.09 in 10.0 mi WNW 11.5 mph - N/A   Mostly Cloudy
3:53 PM 69.1 °F 61.0 °F 75% 30.09 in 9.0 mi West 9.2 mph - N/A   Partly Cloudy
4:53 PM 66.0 °F 61.0 °F 84% 30.09 in 9.0 mi West 6.9 mph - N/A   Clear
5:53 PM 66.0 °F 61.0 °F 84% 30.10 in 10.0 mi NNW 6.9 mph - N/A   Partly Cloudy
6:53 PM 62.1 °F 59.0 °F 90% 30.11 in 10.0 mi NNW 3.5 mph - N/A   Clear
7:53 PM 61.0 °F 57.9 °F 90% 30.12 in 10.0 mi Calm Calm - N/A   Clear
8:53 PM 61.0 °F 59.0 °F 93% 30.13 in 10.0 mi Calm Calm - N/A   Clear
9:53 PM 61.0 °F 57.9 °F 90% 30.13 in 10.0 mi North 4.6 mph - N/A   Clear
10:53 PM 61.0 °F 59.0 °F 93% 30.13 in 10.0 mi NNE 3.5 mph - N/A   Partly Cloudy
11:53 PM 61.0 °F 59.0 °F 93% 30.12 in 10.0 mi North 3.5 mph - N/A   Scattered Clouds